Year,Month,Day,Hour,Minute,Value (Times are PST for temperature in C)
2011,05,29,12,52,16.70
2011,05,29,12,53,16.70
2011,05,29,12,54,16.80
2011,05,29,12,55,16.80
2011,05,29,12,56,16.90
2011,05,29,12,57,17.00
2011,05,29,12,58,17.10
2011,05,29,12,59,17.20
2011,05,29,13,00,17.30
2011,05,29,13,02,17.40
2011,05,29,13,03,17.70
2011,05,29,13,04,17.60
2011,05,29,13,05,17.40
2011,05,29,13,06,17.40
2011,05,29,13,08,17.30
2011,05,29,13,09,17.20
2011,05,29,13,10,17.20
2011,05,29,13,11,17.20
2011,05,29,13,12,17.20
2011,05,29,13,14,17.10
2011,05,29,13,15,16.90
2011,05,29,13,16,16.80
2011,05,29,13,17,16.80
2011,05,29,13,19,16.90
2011,05,29,13,20,16.90
2011,05,29,13,21,17.00
2011,05,29,13,22,16.90
2011,05,29,13,24,16.90
2011,05,29,13,25,16.80
2011,05,29,13,26,16.60
2011,05,29,13,27,16.40
2011,05,29,13,29,16.30
2011,05,29,13,30,16.20
2011,05,29,13,31,16.20
2011,05,29,13,32,16.20
2011,05,29,13,33,16.30
2011,05,29,13,34,16.30
2011,05,29,13,35,16.20
2011,05,29,13,36,16.00
2011,05,29,13,37,15.80
2011,05,29,13,39,15.70
2011,05,29,13,40,15.60
2011,05,29,13,41,15.60
2011,05,29,13,42,15.40
2011,05,29,13,43,15.40
2011,05,29,13,45,15.40
2011,05,29,13,46,15.60
2011,05,29,13,47,15.70
2011,05,29,13,48,15.80
2011,05,29,13,49,16.00
2011,05,29,13,50,16.10
2011,05,29,13,51,16.20
2011,05,29,13,52,16.30
2011,05,29,13,53,16.30
2011,05,29,13,55,16.30
2011,05,29,13,56,16.40
2011,05,29,13,57,16.60
2011,05,29,13,58,16.60
2011,05,29,13,59,16.70
2011,05,29,14,00,16.70
2011,05,29,14,01,16.80
2011,05,29,14,02,17.00
2011,05,29,14,03,17.20
2011,05,29,14,04,17.20
2011,05,29,14,05,17.30
2011,05,29,14,06,17.30
2011,05,29,14,07,17.30
2011,05,29,14,08,17.40
2011,05,29,14,10,17.60
2011,05,29,14,11,17.60
2011,05,29,14,12,17.60
2011,05,29,14,13,17.50
2011,05,29,14,15,17.40
2011,05,29,14,16,17.40
2011,05,29,14,17,17.40
2011,05,29,14,18,17.40
2011,05,29,14,19,17.50
2011,05,29,14,21,17.60
2011,05,29,14,22,17.80
2011,05,29,14,23,17.80
2011,05,29,14,24,17.70
2011,05,29,14,26,17.50
2011,05,29,14,27,17.30
2011,05,29,14,28,17.30
2011,05,29,14,29,17.40
2011,05,29,14,30,17.60
2011,05,29,14,32,17.50
2011,05,29,14,33,17.40
2011,05,29,14,34,17.50
2011,05,29,14,35,17.60
2011,05,29,14,36,17.70
2011,05,29,14,37,17.80
2011,05,29,14,38,18.00
2011,05,29,14,39,18.10
2011,05,29,14,40,18.30
2011,05,29,14,41,18.30
2011,05,29,14,42,18.40
2011,05,29,14,43,18.40
2011,05,29,14,44,18.30
2011,05,29,14,46,18.20
2011,05,29,14,47,17.90
2011,05,29,14,48,17.90
2011,05,29,14,49,17.90
2011,05,29,14,50,17.90
2011,05,29,14,51,17.90
2011,05,29,14,52,18.00
2011,05,29,14,53,18.10
2011,05,29,14,54,18.00
2011,05,29,14,55,18.00
2011,05,29,14,56,17.90
2011,05,29,14,57,18.00
2011,05,29,14,58,18.10
2011,05,29,14,59,18.10
2011,05,29,15,00,17.90
2011,05,29,15,01,17.70
2011,05,29,15,02,17.60
2011,05,29,15,04,17.40
2011,05,29,15,05,17.20
2011,05,29,15,06,17.20
2011,05,29,15,08,17.10
2011,05,29,15,09,17.00
2011,05,29,15,10,17.00
2011,05,29,15,11,17.00
2011,05,29,15,13,16.90
2011,05,29,15,14,16.80
2011,05,29,15,15,16.80
2011,05,29,15,17,16.80
2011,05,29,15,18,17.10
2011,05,29,15,19,17.20
2011,05,29,15,20,17.30
2011,05,29,15,21,17.30
2011,05,29,15,22,17.30
2011,05,29,15,23,17.30
2011,05,29,15,24,17.20
2011,05,29,15,25,17.20
2011,05,29,15,27,17.20
2011,05,29,15,28,17.10
2011,05,29,15,29,17.10
2011,05,29,15,31,17.10
2011,05,29,15,32,17.10
2011,05,29,15,33,17.10
2011,05,29,15,34,17.10
2011,05,29,15,35,17.20
2011,05,29,15,36,17.20
2011,05,29,15,37,17.20
2011,05,29,15,38,17.20
2011,05,29,15,40,17.10
2011,05,29,15,41,16.80
2011,05,29,15,42,16.70
2011,05,29,15,43,16.60
2011,05,29,15,44,16.60
2011,05,29,15,45,16.50
2011,05,29,15,46,16.50
2011,05,29,15,47,16.60
2011,05,29,15,48,16.60
2011,05,29,15,49,16.60
2011,05,29,15,50,16.50
2011,05,29,15,51,16.40
2011,05,29,15,52,16.50
2011,05,29,15,53,16.60
2011,05,29,15,54,16.70
2011,05,29,15,55,16.60
2011,05,29,15,56,16.60
2011,05,29,15,57,16.60
2011,05,29,15,58,16.60
2011,05,29,15,59,16.60
2011,05,29,16,00,16.60
2011,05,29,16,01,16.60
2011,05,29,16,02,16.60
2011,05,29,16,03,16.60
2011,05,29,16,05,16.70
2011,05,29,16,06,16.60
2011,05,29,16,07,16.60
2011,05,29,16,08,16.60
2011,05,29,16,09,16.60
2011,05,29,16,10,16.60
2011,05,29,16,11,16.50
2011,05,29,16,12,16.60
2011,05,29,16,13,16.60
2011,05,29,16,14,16.40
2011,05,29,16,15,16.40
2011,05,29,16,16,16.40
2011,05,29,16,17,16.50
2011,05,29,16,19,16.50
2011,05,29,16,20,16.50
2011,05,29,16,21,16.60
2011,05,29,16,22,16.60
2011,05,29,16,23,16.60
2011,05,29,16,25,16.70
2011,05,29,16,26,16.70
2011,05,29,16,27,16.60
2011,05,29,16,28,16.60
2011,05,29,16,29,16.60
2011,05,29,16,30,16.50
2011,05,29,16,31,16.40
2011,05,29,16,32,16.50
2011,05,29,16,33,16.50
2011,05,29,16,34,16.60
2011,05,29,16,35,16.60
2011,05,29,16,36,16.60
2011,05,29,16,37,16.70
2011,05,29,16,38,16.70
2011,05,29,16,40,16.70
2011,05,29,16,41,16.60
2011,05,29,16,42,16.50
2011,05,29,16,43,16.60
2011,05,29,16,45,16.60
2011,05,29,16,46,16.60
2011,05,29,16,47,16.60
2011,05,29,16,48,16.60
2011,05,29,16,49,16.40
2011,05,29,16,51,16.30
2011,05,29,16,52,16.30
2011,05,29,16,53,16.20
2011,05,29,16,55,16.10
2011,05,29,16,56,16.10
2011,05,29,16,57,16.10
2011,05,29,16,59,16.00
2011,05,29,17,00,16.00
2011,05,29,17,01,15.90
2011,05,29,17,02,15.90
2011,05,29,17,04,16.00
2011,05,29,17,05,16.10
2011,05,29,17,07,16.10
2011,05,29,17,08,16.10
2011,05,29,17,09,16.10
2011,05,29,17,10,16.10
2011,05,29,17,12,16.20
2011,05,29,17,13,16.20
2011,05,29,17,14,16.20
2011,05,29,17,15,16.20
2011,05,29,17,17,16.10
2011,05,29,17,18,16.00
2011,05,29,17,19,15.90
2011,05,29,17,20,15.80
2011,05,29,17,22,15.70
2011,05,29,17,23,15.60
2011,05,29,17,24,15.40
2011,05,29,17,25,15.40
2011,05,29,17,27,15.40
2011,05,29,17,28,15.40
2011,05,29,17,29,15.40
2011,05,29,17,31,15.30
2011,05,29,17,32,15.30
2011,05,29,17,33,15.20
2011,05,29,17,35,15.20
2011,05,29,17,36,15.30
2011,05,29,17,37,15.30
2011,05,29,17,38,15.30
2011,05,29,17,40,15.20
2011,05,29,17,41,15.10
2011,05,29,17,42,15.00
2011,05,29,17,43,15.00
2011,05,29,17,44,15.00
2011,05,29,17,45,15.00
2011,05,29,17,46,15.00
2011,05,29,17,47,14.90
2011,05,29,17,48,14.90
2011,05,29,17,50,14.80
2011,05,29,17,51,14.80
2011,05,29,17,52,14.80
2011,05,29,17,53,14.80
2011,05,29,17,55,14.80
2011,05,29,17,56,14.70
2011,05,29,17,57,14.60
2011,05,29,17,59,14.60
2011,05,29,18,00,14.60
2011,05,29,18,01,14.60
2011,05,29,18,02,14.50
2011,05,29,18,03,14.60
2011,05,29,18,04,14.60
2011,05,29,18,05,14.60
2011,05,29,18,06,14.50
2011,05,29,18,07,14.50
2011,05,29,18,08,14.40
2011,05,29,18,09,14.40
2011,05,29,18,10,14.50
2011,05,29,18,11,14.60
2011,05,29,18,12,14.70
2011,05,29,18,14,14.70
2011,05,29,18,15,14.70
2011,05,29,18,16,14.70
2011,05,29,18,17,14.70
2011,05,29,18,19,14.80
2011,05,29,18,20,14.70
2011,05,29,18,21,14.70
2011,05,29,18,22,14.70
2011,05,29,18,24,14.70
2011,05,29,18,25,14.70
2011,05,29,18,26,14.80
2011,05,29,18,27,14.80
2011,05,29,18,28,14.90
2011,05,29,18,29,14.90
2011,05,29,18,30,14.90
2011,05,29,18,32,14.80
2011,05,29,18,33,14.80
2011,05,29,18,34,14.80
2011,05,29,18,35,14.80
2011,05,29,18,36,14.80
2011,05,29,18,37,14.80
2011,05,29,18,38,14.80
2011,05,29,18,39,14.90
2011,05,29,18,41,14.90
2011,05,29,18,42,14.90
2011,05,29,18,43,14.80
2011,05,29,18,44,14.80
2011,05,29,18,46,14.70
2011,05,29,18,47,14.60
2011,05,29,18,48,14.60
2011,05,29,18,49,14.50
2011,05,29,18,51,14.60
2011,05,29,18,52,14.70
2011,05,29,18,53,14.60
2011,05,29,18,54,14.60
2011,05,29,18,56,14.50
2011,05,29,18,57,14.50
2011,05,29,18,58,14.40
2011,05,29,19,00,14.40
2011,05,29,19,01,14.40
2011,05,29,19,02,14.40
2011,05,29,19,03,14.30
2011,05,29,19,05,14.30
2011,05,29,19,06,14.30
2011,05,29,19,07,14.30
2011,05,29,19,08,14.30
2011,05,29,19,09,14.30
2011,05,29,19,10,14.30
2011,05,29,19,11,14.30
2011,05,29,19,12,14.20
2011,05,29,19,14,14.20
2011,05,29,19,15,14.20
2011,05,29,19,16,14.20
2011,05,29,19,18,14.30
2011,05,29,19,19,14.30
2011,05,29,19,20,14.30
2011,05,29,19,21,14.30
2011,05,29,19,22,14.30
2011,05,29,19,23,14.30
2011,05,29,19,24,14.30
2011,05,29,19,25,14.30
2011,05,29,19,27,14.20
2011,05,29,19,28,14.20
2011,05,29,19,29,14.20
2011,05,29,19,31,14.20
2011,05,29,19,32,14.20
2011,05,29,19,33,14.20
2011,05,29,19,34,14.10
2011,05,29,19,36,14.10
2011,05,29,19,37,14.00
2011,05,29,19,38,13.90
2011,05,29,19,39,13.90
2011,05,29,19,41,13.80
2011,05,29,19,42,13.80
2011,05,29,19,43,13.80
2011,05,29,19,44,13.80
2011,05,29,19,46,13.90
2011,05,29,19,47,14.00
2011,05,29,19,48,14.00
2011,05,29,19,49,13.90
2011,05,29,19,50,13.90
2011,05,29,19,51,13.80
2011,05,29,19,52,13.80
2011,05,29,19,53,13.70
2011,05,29,19,54,13.70
2011,05,29,19,55,13.70
2011,05,29,19,56,13.70
2011,05,29,19,57,13.70
2011,05,29,19,58,13.70
2011,05,29,19,59,13.70
2011,05,29,20,00,13.60
2011,05,29,20,01,13.60
2011,05,29,20,02,13.60
2011,05,29,20,03,13.60
2011,05,29,20,04,13.60
2011,05,29,20,06,13.60
2011,05,29,20,07,13.50
2011,05,29,20,08,13.40
2011,05,29,20,09,13.40
2011,05,29,20,10,13.30
2011,05,29,20,12,13.30
2011,05,29,20,13,13.30
2011,05,29,20,14,13.30
2011,05,29,20,16,13.30
2011,05,29,20,17,13.30
2011,05,29,20,18,13.30
2011,05,29,20,19,13.30
2011,05,29,20,21,13.30
2011,05,29,20,22,13.20
2011,05,29,20,23,13.20
2011,05,29,20,24,13.10
2011,05,29,20,25,13.10
2011,05,29,20,26,13.10
2011,05,29,20,27,13.10
2011,05,29,20,28,13.00
2011,05,29,20,30,13.00
2011,05,29,20,31,12.90
2011,05,29,20,32,12.90
2011,05,29,20,33,12.90
2011,05,29,20,34,12.90
2011,05,29,20,35,12.80
2011,05,29,20,36,12.80
2011,05,29,20,37,12.80
2011,05,29,20,38,12.70
2011,05,29,20,39,12.70
2011,05,29,20,40,12.70
2011,05,29,20,41,12.60
2011,05,29,20,42,12.60
2011,05,29,20,43,12.60
2011,05,29,20,44,12.60
2011,05,29,20,45,12.50
2011,05,29,20,46,12.50
2011,05,29,20,47,12.40
2011,05,29,20,48,12.40
2011,05,29,20,50,12.40
2011,05,29,20,51,12.30
2011,05,29,20,52,12.30
2011,05,29,20,53,12.30
2011,05,29,20,55,12.30
2011,05,29,20,56,12.30
2011,05,29,20,57,12.30
2011,05,29,20,59,12.30
2011,05,29,21,00,12.30
2011,05,29,21,01,12.20
2011,05,29,21,03,12.20
2011,05,29,21,04,12.20
2011,05,29,21,05,12.20
2011,05,29,21,07,12.20
2011,05,29,21,08,12.10
2011,05,29,21,09,12.10
2011,05,29,21,10,12.10
2011,05,29,21,12,12.10
2011,05,29,21,13,12.00
2011,05,29,21,14,12.00
2011,05,29,21,15,12.00
2011,05,29,21,17,12.00
2011,05,29,21,18,11.90
2011,05,29,21,19,11.90
2011,05,29,21,20,11.90
2011,05,29,21,21,11.90
2011,05,29,21,23,11.90
2011,05,29,21,24,11.90
2011,05,29,21,25,11.90
2011,05,29,21,26,11.90
2011,05,29,21,27,11.90
2011,05,29,21,28,11.90
2011,05,29,21,29,11.90
2011,05,29,21,30,11.90
2011,05,29,21,31,11.90
2011,05,29,21,32,11.90
2011,05,29,21,34,11.90
2011,05,29,21,35,11.90
2011,05,29,21,36,11.90
2011,05,29,21,37,11.90
2011,05,29,21,38,11.90
2011,05,29,21,39,11.90
2011,05,29,21,40,11.90
2011,05,29,21,41,11.90
2011,05,29,21,42,11.90
2011,05,29,21,43,11.80
2011,05,29,21,44,11.80
2011,05,29,21,45,11.80
2011,05,29,21,46,11.80
2011,05,29,21,47,11.80
2011,05,29,21,48,11.80
2011,05,29,21,49,11.80
2011,05,29,21,50,11.80
2011,05,29,21,51,11.80
2011,05,29,21,52,11.80
2011,05,29,21,53,11.80
2011,05,29,21,54,11.90
2011,05,29,21,55,11.80
2011,05,29,21,56,11.80
2011,05,29,21,58,11.80
2011,05,29,21,59,11.80
2011,05,29,22,00,11.80
2011,05,29,22,01,11.80
2011,05,29,22,02,11.80
2011,05,29,22,03,11.80
2011,05,29,22,04,11.80
2011,05,29,22,05,11.80
2011,05,29,22,06,11.80
2011,05,29,22,08,11.80
2011,05,29,22,09,11.80
2011,05,29,22,10,11.80
2011,05,29,22,11,11.80
2011,05,29,22,12,11.80
2011,05,29,22,13,11.80
2011,05,29,22,14,11.80
2011,05,29,22,15,11.70
2011,05,29,22,16,11.70
2011,05,29,22,17,11.70
2011,05,29,22,18,11.70
2011,05,29,22,19,11.70
2011,05,29,22,20,11.70
2011,05,29,22,21,11.70
2011,05,29,22,23,11.70
2011,05,29,22,24,11.70
2011,05,29,22,25,11.70
2011,05,29,22,26,11.70
2011,05,29,22,27,11.70
2011,05,29,22,28,11.70
2011,05,29,22,29,11.70
2011,05,29,22,30,11.60
2011,05,29,22,31,11.60
2011,05,29,22,33,11.60
2011,05,29,22,34,11.60
2011,05,29,22,35,11.60
2011,05,29,22,36,11.60
2011,05,29,22,37,11.50
2011,05,29,22,38,11.50
2011,05,29,22,39,11.50
2011,05,29,22,40,11.50
2011,05,29,22,41,11.50
2011,05,29,22,42,11.50
2011,05,29,22,43,11.40
2011,05,29,22,44,11.40
2011,05,29,22,46,11.40
2011,05,29,22,47,11.40
2011,05,29,22,48,11.40
2011,05,29,22,49,11.40
2011,05,29,22,50,11.40
2011,05,29,22,51,11.30
2011,05,29,22,52,11.30
2011,05,29,22,53,11.30
2011,05,29,22,54,11.30
2011,05,29,22,55,11.30
2011,05,29,22,57,11.30
2011,05,29,22,58,11.30
2011,05,29,22,59,11.30
2011,05,29,23,00,11.30
2011,05,29,23,02,11.30
2011,05,29,23,03,11.20
2011,05,29,23,04,11.20
2011,05,29,23,05,11.20
2011,05,29,23,06,11.20
2011,05,29,23,07,11.20
2011,05,29,23,08,11.20
2011,05,29,23,09,11.20
2011,05,29,23,11,11.20
2011,05,29,23,12,11.20
2011,05,29,23,13,11.20
2011,05,29,23,14,11.20
2011,05,29,23,15,11.20
2011,05,29,23,16,11.20
2011,05,29,23,17,11.20
2011,05,29,23,18,11.20
2011,05,29,23,20,11.20
2011,05,29,23,21,11.20
2011,05,29,23,22,11.20
2011,05,29,23,23,11.20
2011,05,29,23,24,11.20
2011,05,29,23,25,11.20
2011,05,29,23,26,11.20
2011,05,29,23,27,11.20
2011,05,29,23,28,11.20
2011,05,29,23,30,11.20
2011,05,29,23,31,11.20
2011,05,29,23,32,11.20
2011,05,29,23,33,11.20
2011,05,29,23,34,11.20
2011,05,29,23,35,11.20
2011,05,29,23,36,11.20
2011,05,29,23,37,11.30
2011,05,29,23,39,11.30
2011,05,29,23,40,11.30
2011,05,29,23,41,11.30
2011,05,29,23,42,11.30
2011,05,29,23,43,11.30
2011,05,29,23,45,11.30
2011,05,29,23,46,11.30
2011,05,29,23,47,11.30
2011,05,29,23,48,11.30
2011,05,29,23,49,11.30
2011,05,29,23,50,11.30
2011,05,29,23,51,11.30
2011,05,29,23,52,11.30
2011,05,29,23,53,11.30
2011,05,29,23,55,11.30
2011,05,29,23,56,11.40
2011,05,29,23,57,11.40
2011,05,29,23,59,11.40
